Back to catalog

SL-16 DEB

AliveLEO
NORAD 28357·DEBRIS·🇷🇺 Russia

Launched Jun 10, 2004 from Baikonur Cosmodrome

Loading…

Next Passes (next 24 hours)

TLE

FreshSource: Space-Track

Epoch: Sep 14, 2026, 09:59 UTC

1 28357U 04021F   26257.41632545  .00000017  00000-0  56201-4 0  9990
2 28357  71.0723 306.8402 0200527 324.4791  47.9439 13.73575804115136

Track SL-16 DEB in real time with AllMySat

Download on the App Store